Regional Weather Roundup
Issued by NWS Goodland, KS

Home | Current Version | Previous Version | Graphics & Text | Print | Product List | Glossary On
Versions: 1 2 3 4 5 6 7 8 9 10 11 12 13 14 15 16 17 18 19 20 21 22 23 24 25 26 27 28 29 30 31 32 33 34 35 36 37 38 39 40 41 42 43 44 45 46 47 48 49 50
100
ASUS43 KGLD 280208
RWRGLD

GOODLAND FORECAST AREA HOURLY WEATHER ROUNDUP
NATIONAL WEATHER SERVICE GOODLAND KS
800 PM MDT FRI MAY 27 2016

...OFFICIAL OBSERVATIONS...

CITY           SKY/WX    TMP DP  RH WIND       PRES   REMARKS
GOODLAND KS    MOCLDY    52  49  89 N14       29.79R
HILL CITY KS   PTCLDY    63  59  87 NW7       29.71R
IMPERIAL NEB   CLOUDY    55  46  71 N13       29.79S
MCCOOK NEB     CLOUDY    57  50  77 NW24G30   29.75R
AKRON CO       CLOUDY    51  46  83 N8        29.89R
BURLINGTON CO  CLOUDY    52  46  80 N6        29.84R
LIMON CO       CLOUDY    50  44  80 NW9       29.93R
$$

...UNOFFICIAL OBSERVATIONS...

CITY           SKY/WX    TMP DP  RH WIND       PRES   REMARKS
GOVE KS          N/A     61  32  33 MISG        N/A
LENORA KS        N/A     60  32  34 MISG        N/A
SHARON SPRINGS   N/A     50  48  92 N8G17       N/A
TRIBUNE KS     CLOUDY    52  50  93 NW15      29.80
KIT CARSON CO    N/A     51  46  84 CALM        N/A
YUMA CO          N/A     53  49  86 N6          N/A
$$




USA.gov is the U.S. government's official web portal to all federal, state and local government web resources and services.